This demonstration page uses our WeatherBlox Daily Observations layout. Learn more.

Hourly Observations for October 8, 2015

Temp ( °F °C ) Dew Point ( °F °C ) Humidity (%) Winds ( mph kmh ) Pressure ( in mb ) Visibility ( mi km ) Precip ( " mm )
12:15 am 00:15 Clear 59 15 57 14 94 94 S 6 9 30.03 1017 10 16.09344 0 0
12:35 am 00:35 Clear 59 15 55 13 88 88 S 6 9 30.03 1017 10 16.09344 0 0
12:55 am 00:55 Clear 59 15 55 13 88 88 SSW 8 13 30.03 1017 10 16.09344 0 0
1:15 am 01:15 Clear 57 14 55 13 94 94 SSW 7 11 30.03 1017 7 11.265408 0 0
1:35 am 01:35 Clear 57 14 55 13 94 94 SSW 7 11 30.03 1017 7 11.265408 0 0
1:55 am 01:55 Clear 59 15 55 13 88 88 SSW 6 9 30.03 1017 7 11.265408 0 0
2:15 am 02:15 Clear 59 15 55 13 88 88 SSW 7 11 30.03 1017 7 11.265408 0 0
2:35 am 02:35 Clear 59 15 57 14 94 94 SSW 8 13 30.03 1017 7 11.265408 0 0
2:55 am 02:55 Clear 57 14 55 13 94 94 SSW 8 13 30.03 1017 7 11.265408 0 0
3:15 am 03:15 Clear 57 14 55 13 94 94 SSW 7 11 30.03 1017 7 11.265408 0 0
3:35 am 03:35 Clear 57 14 55 13 94 94 SSW 7 11 30.03 1017 7 11.265408 0 0
3:55 am 03:55 Clear 57 14 55 13 94 94 SW 5 7 30 1016 7 11.265408 0 0
4:15 am 04:15 Clear 57 14 55 13 94 94 SW 7 11 30 1016 7 11.265408 0 0
4:35 am 04:35 Clear 57 14 55 13 94 94 SW 7 11 30 1016 10 16.09344 0 0
4:55 am 04:55 Clear 57 14 55 13 94 94 SW 5 7 30 1016 10 16.09344 0 0
5:10 am 05:10 Clear 57 14 55 13 94 94 SW 5 7 30 1016 10 16.09344 0 0
5:35 am 05:35 Clear 57 14 55 13 94 94 SW 5 7 30 1016 10 16.09344 0 0
5:55 am 05:55 Clear 57 14 55 13 94 94 SW 5 7 30 1016 7 11.265408 0 0
6:15 am 06:15 Clear 55 13 54 12 94 94 SW 6 9 30 1016 7 11.265408 0 0
6:35 am 06:35 Partly Cloudy 55 13 54 12 94 94 Calm 30 1016 7 11.265408 0 0
6:55 am 06:55 Partly Cloudy 55 13 54 12 94 94 SW 3 6 30.06 1018 7 11.265408 0 0
7:15 am 07:15 Clear 55 13 54 12 94 94 Calm 30.06 1018 7 11.265408 0 0
7:35 am 07:35 Clear with Mist and Fog 54 12 52 11 94 94 Calm 30.06 1018 3 4.828032 0 0
7:55 am 07:55 Sunny with Mist and Fog 54 12 52 11 94 94 Calm 30.06 1018 2.5 4.02336 0 0
8:15 am 08:15 Sunny with Mist and Fog 54 12 52 11 94 94 Calm 30.06 1018 2.5 4.02336 0 0
8:35 am 08:35 Sunny with Mist and Fog 54 12 54 12 100 100 Calm 30.06 1018 3 4.828032 0 0
8:55 am 08:55 Sunny with Mist and Fog 55 13 55 13 100 100 Calm 30.09 1019 5 8.04672 0 0
9:15 am 09:15 Sunny 59 15 57 14 94 94 Calm 30.06 1018 7 11.265408 0 0
9:35 am 09:35 Sunny 61 16 57 14 88 88 NNW 5 7 30.06 1018 10 16.09344 0 0
9:55 am 09:55 Sunny 63 17 57 14 83 83 N 8 13 30.03 1017 10 16.09344 0 0
10:15 am 10:15 Sunny 66 19 54 12 64 64 NNE 9 15 30.03 1017 10 16.09344 0 0
10:35 am 10:35 Sunny 68 20 52 11 56 56 NNE 13 20 30.03 1017 10 16.09344 0 0
10:55 am 10:55 Sunny 70 21 50 10 50 50 NNE 12 19 30.03 1017 10 16.09344 0 0
11:15 am 11:15 Sunny 72 22 46 8 41 41 NE 15 24 30.03 1017 10 16.09344 0 0
11:35 am 11:35 Sunny 73 23 45 7 36 36 NNE 13 20 30.03 1017 10 16.09344 0 0
11:55 am 11:55 Sunny 75 24 45 7 34 34 NNE 14 22 30.03 1017 10 16.09344 0 0
12:15 pm 12:15 Sunny 77 25 43 6 30 30 NNE 13 20 30 1016 10 16.09344 0 0
12:35 pm 12:35 Sunny 77 25 41 5 28 28 NNE 12 19 30 1016 10 16.09344 0 0
12:55 pm 12:55 Sunny 75 24 41 5 29 29 NNE 9 15 30.03 1017 10 16.09344 0 0
1:15 pm 13:15 Sunny 77 25 41 5 28 28 NNE 12 19 30 1016 10 16.09344 0 0
1:55 pm 13:55 Sunny 77 25 41 5 28 28 NE 16 26 30 1016 10 16.09344 0 0
2:15 pm 14:15 Sunny 77 25 41 5 28 28 NNE 10 17 29.97 1015 10 16.09344 0 0
2:35 pm 14:35 Sunny 77 25 41 5 28 28 NNE 10 17 29.97 1015 10 16.09344 0 0
2:55 pm 14:55 Sunny 77 25 41 5 28 28 NNE 14 22 29.97 1015 10 16.09344 0 0
3:15 pm 15:15 Sunny 77 25 41 5 28 28 NNE 17 28 29.97 1015 10 16.09344 0 0
3:35 pm 15:35 Sunny 77 25 41 5 28 28 NNE 14 22 29.97 1015 10 16.09344 0 0
3:55 pm 15:55 Sunny 77 25 41 5 28 28 N 13 20 29.97 1015 10 16.09344 0 0
4:15 pm 16:15 Sunny 77 25 43 6 30 30 NNE 15 24 30 1016 10 16.09344 0 0
4:35 pm 16:35 Sunny 75 24 41 5 29 29 N 21 33 30.03 1017 10 16.09344 0 0
4:55 pm 16:55 Sunny 72 22 43 6 36 36 N 21 33 30.03 1017 10 16.09344 0 0
5:15 pm 17:15 Sunny 70 21 41 5 35 35 N 18 30 30.03 1017 10 16.09344 0 0
5:35 pm 17:35 Sunny 70 21 43 6 38 38 N 18 30 30.03 1017 10 16.09344 0 0
5:55 pm 17:55 Partly Cloudy 68 20 43 6 40 40 NNE 15 24 30.09 1019 10 16.09344 0 0
6:15 pm 18:15 Partly Cloudy 66 19 41 5 40 40 NNE 21 33 30.09 1019 10 16.09344 0 0
6:35 pm 18:35 Partly Cloudy 64 18 43 6 46 46 N 17 28 30.09 1019 10 16.09344 0 0
6:55 pm 18:55 Partly Cloudy 64 18 45 7 49 49 N 18 30 30.09 1019 10 16.09344 0 0
7:15 pm 19:15 Partly Cloudy 63 17 43 6 49 49 NNE 22 35 30.15 1021 10 16.09344 0 0
7:35 pm 19:35 Partly Cloudy 63 17 43 6 49 49 NNE 17 28 30.15 1021 10 16.09344 0 0
7:55 pm 19:55 Partly Cloudy 61 16 45 7 55 55 N 14 22 30.15 1021 10 16.09344 0 0
8:15 pm 20:15 Mostly Cloudy 61 16 46 8 59 59 N 17 28 30.18 1022 10 16.09344 0 0
8:35 pm 20:35 Cloudy with Light Rain 57 14 48 9 72 72 N 20 31 30.21 1023 10 16.09344 0 0
8:55 pm 20:55 Cloudy with Light Rain 55 13 48 9 77 77 N 16 26 30.21 1023 10 16.09344 0 0
9:15 pm 21:15 Cloudy with Light Rain 55 13 50 10 82 82 N 12 19 30.21 1023 10 16.09344 0 0
9:35 pm 21:35 Cloudy with Light Rain 54 12 50 10 88 88 N 12 19 30.21 1023 10 16.09344 0 0
9:55 pm 21:55 Cloudy with Light Rain 54 12 52 11 94 94 N 9 15 30.21 1023 10 16.09344 0 0
10:15 pm 22:15 Cloudy with Light Rain 54 12 52 11 94 94 N 8 13 30.21 1023 10 16.09344 0 0
10:35 pm 22:35 Cloudy with Light Drizzle 54 12 52 11 94 94 N 13 20 30.21 1023 10 16.09344 0 0
10:55 pm 22:55 Mostly Cloudy 54 12 50 10 88 88 N 10 17 30.21 1023 10 16.09344 0 0
11:15 pm 23:15 Partly Cloudy 52 11 50 10 94 94 N 8 13 30.24 1024 10 16.09344 0 0
11:35 pm 23:35 Mostly Cloudy 52 11 50 10 94 94 N 7 11 30.24 1024 10 16.09344 0 0
11:55 pm 23:55 Mostly Cloudy 54 12 50 10 88 88 NNW 8 13 30.21 1023 10 16.09344 0 0

Powered by AerisWeather